Weather History for KMVL - December, 2012

Change the Weather History Date:

Sunday, December 9, 2012

  Actual Average Record
Temperature  
Mean Temperature 37 °F 25 °F  
Max Temperature 45 °F 34 °F 45 °F (2012)
Min Temperature 28 °F 16 °F -13 °F (2003)
Degree Days  
Heating Degree Days 28 40  
Month to date heating degree days 276 343  
Since 1 July heating degree days 1970 2171  
Moisture  
Dew Point 26 °F    
Average Humidity 75    
Maximum Humidity 85    
Minimum Humidity 64    
Precipitation  
Precipitation 0.01 in 0.10 in 0.23 in (2005)
Month to date precipitation 1.11 0.88  
Year to date precipitation 20.35 34.24  
Sea Level Pressure  
Sea Level Pressure 30.23 in    
Wind  
Wind Speed 5 mph (North)    
Max Wind Speed 16 mph    
Max Gust Speed 23 mph    
Visibility 9 miles    
Events Rain , Snow    
T = Trace of Precipitation, MM = Missing Value Source: NWS Daily Summary

Daily Weather History Graph

Daily Weather History Graph

Search for Another Location

Airport or City:

Trip Planner

Search our weather history database for the weather conditions in past years. The results will help you decide how hot, cold, wet, or windy it might be!

Date:

Astronomy

Dec. 09, 2012 Rise Set
Actual Time 7:15 AM EST 4:10 PM EST
Civil Twilight 6:42 AM EST 4:43 PM EST
Nautical Twilight 6:05 AM EST 5:20 PM EST
Astronomical Twilight 5:30 AM EST 5:55 PM EST
Moon 2:37 AM EST (12/9) 1:21 PM EST (12/9)
Length of Visible Light 10h 01m
Length of Day
8h 54m
Waning Crescent, 19% of the Moon is Illuminated
Dec 9
Waning Crescent
Dec 13
New
Dec 20
First Quarter
Dec 28
Full
Jan 4
Last Quarter

Hourly Weather History & Observations

Time (EST) Temp. Windchill Dew Point Humidity Pressure Visibility Wind Dir Wind Speed Gust Speed Precip Events Conditions
12:54 AM 42.1 °F 37.1 °F 35.1 °F 76% 30.00 in 10.0 mi North 8.1 mph 23.0 mph 0.00 in Rain Light Rain
1:15 AM 39.2 °F 33.0 °F 35.6 °F 87% 30.00 in 10.0 mi North 9.2 mph - 0.00 in Rain Light Rain
1:54 AM 39.0 °F 34.0 °F 35.1 °F 86% 30.07 in 9.0 mi NNW 6.9 mph - 0.00 in Rain Light Rain
2:54 AM 37.9 °F 35.5 °F 33.1 °F 83% 30.09 in 10.0 mi North 3.5 mph - 0.00 in   Overcast
3:54 AM 37.0 °F 32.4 °F 30.9 °F 79% 30.12 in 10.0 mi Variable 5.8 mph - N/A   Overcast
4:54 AM 37.0 °F 33.3 °F 30.0 °F 76% 30.16 in 10.0 mi Variable 4.6 mph - N/A   Overcast
5:54 AM 35.1 °F 29.3 °F 30.0 °F 82% 30.20 in 10.0 mi North 6.9 mph - 0.01 in   Overcast
6:54 AM 35.1 °F 29.3 °F 28.0 °F 76% 30.24 in 10.0 mi Variable 6.9 mph - 0.00 in   Overcast
7:54 AM 35.1 °F 28.6 °F 28.0 °F 76% 30.27 in 10.0 mi NNW 8.1 mph - 0.00 in   Overcast
8:54 AM 35.1 °F 29.3 °F 27.0 °F 72% 30.30 in 10.0 mi North 6.9 mph - N/A   Overcast
9:54 AM 34.0 °F 26.0 °F 27.0 °F 75% 30.32 in 10.0 mi North 10.4 mph - N/A   Overcast
10:51 AM 33.8 °F 25.3 °F 24.8 °F 70% 30.30 in 10.0 mi North 11.5 mph - N/A   Scattered Clouds
10:54 AM 33.1 °F 25.5 °F 25.0 °F 72% 30.33 in 10.0 mi North 9.2 mph - N/A   Scattered Clouds
11:19 AM 33.8 °F 27.0 °F 24.8 °F 70% 30.30 in 10.0 mi North 8.1 mph - N/A   Mostly Cloudy
11:54 AM 32.0 °F 24.2 °F 24.1 °F 73% 30.32 in 10.0 mi NNE 9.2 mph 17.3 mph N/A   Mostly Cloudy
12:54 PM 33.1 °F 27.7 °F 23.0 °F 66% 30.31 in 10.0 mi North 5.8 mph - N/A   Overcast
1:38 PM 33.8 °F 27.0 °F 23.0 °F 65% 30.27 in 10.0 mi North 8.1 mph - N/A   Scattered Clouds
1:54 PM 34.0 °F 28.0 °F 23.0 °F 64% 30.30 in 10.0 mi NNW 6.9 mph - N/A   Clear
2:54 PM 33.1 °F 30.0 °F 23.0 °F 66% 30.31 in 10.0 mi NNW 3.5 mph - N/A   Clear
3:54 PM 30.9 °F 26.2 °F 23.0 °F 72% 30.33 in 10.0 mi North 4.6 mph - N/A   Clear
4:54 PM 30.0 °F - 23.0 °F 75% 30.35 in 10.0 mi Calm Calm - N/A   Partly Cloudy
5:54 PM 28.0 °F - 23.0 °F 81% 30.33 in 10.0 mi Calm Calm - N/A   Partly Cloudy
6:54 PM 30.0 °F - 23.0 °F 75% 30.30 in 10.0 mi Calm Calm - N/A   Partly Cloudy
7:54 PM 30.0 °F - 23.0 °F 75% 30.30 in 10.0 mi Calm Calm - N/A   Overcast
8:54 PM 30.0 °F 26.5 °F 23.0 °F 75% 30.25 in 10.0 mi North 3.5 mph - N/A   Overcast
9:54 PM 30.0 °F - 23.0 °F 75% 30.20 in 10.0 mi Calm Calm - N/A   Overcast
10:54 PM 30.0 °F 26.5 °F 23.0 °F 75% 30.17 in 10.0 mi NNE 3.5 mph - N/A   Overcast
11:44 PM 30.2 °F - 24.8 °F 80% 30.10 in 2.5 mi Calm Calm - 0.00 in Snow Light Snow
11:54 PM 30.0 °F - 25.0 °F 82% 30.13 in 2.0 mi Calm Calm - 0.00 in Snow Light Snow